Preview of NWS' New Version of Forecast
This preview is not operational and should not be used for support decisions.

Regional Weather Roundup (RWR)

Issued by National Weather Service (NWS)

                            
000
ASUS43 KMKX 170300
RWRWI 

WISCONSIN REGIONAL WEATHER ROUNDUP
NATIONAL WEATHER SERVICE MILWAUKEE/SULLIVAN WI
1000 PM CDT MON SEP 16 2019

NOTE: "FAIR" INDICATES FEW OR NO CLOUDS BELOW 12,000 FEET WITH NO
SIGNIFICANT WEATHER AND/OR OBSTRUCTIONS TO VISIBILITY.

WIZ001-002-006>008-014>016-023>028-170400-
NORTHWEST WISCONSIN
  
CITY           SKY/WX    TMP DP  RH WIND       PRES   REMARKS
SUPERIOR ARPT  FOG       51  51 100 NE3       30.02S VSB 1/2          
ASHLAND        FAIR      56  55  97 CALM      30.02R                  
HAYWARD        FAIR      70  61  73 S6        30.04R                  
SIREN          FAIR      72  64  75 S6        30.00S                  
CUMBERLAND     FAIR      68  61  77 SE5       30.04R                  
RICE LAKE      FAIR      69  55  60 SE5       30.05R                  
CHETEK         FAIR      68  64  88 SE3       30.05R                  
LADYSMITH      FAIR      68  65  89 SE6       30.09R                  
EAU CLAIRE     NOT AVBL                                               
MENOMONIE      FAIR      64  61  87 E6        30.04S                  
NEW RICHMOND   FAIR      73  63  71 S8        30.02R                  
OSCEOLA        FAIR      73  66  78 SE5       30.02S                  
$$
 
WIZ003>005-009-010-017-018-170400-
NORTH CENTRAL WISCONSIN
  
CITY           SKY/WX    TMP DP  RH WIND       PRES   REMARKS
MANITOWISH WTR FAIR      65  63  93 SE5       30.10R                  
ARBOR VITAE    FAIR      67  64  88 S6        30.10S                  
WOODRUFF       FAIR      67  64  88 S6        30.10S                  
RHINELANDER    FAIR      65  61  87 S5        30.13R                  
EAGLE RIVER    FAIR      67  61  80 S5        30.12R                  
LAND O LAKES   FAIR      63  61  93 SE3       30.13S                  
PHILLIPS       FAIR      66  62  85 S5        30.09R                  
TOMAHAWK       FAIR      63  61  94 CALM      30.12R                  
MEDFORD        FAIR      62  59  88 S6        30.10S                  
MERRILL        FAIR      65  64  95 SE3       30.12R                  
$$
 
WIZ029-030-035-036-043>047-170400-
CENTRAL WISCONSIN
  
CITY           SKY/WX    TMP DP  RH WIND       PRES   REMARKS
WAUSAU         FAIR      68  64  87 SE8       30.10R                  
MOSINEE        PTCLDY    66  66 100 SE6       30.13R                  
MARSHFIELD     FAIR      68  62  81 S6        30.10R                  
STEVENS POINT  FAIR      65  65  98 SE5       30.12S                  
WAUPACA        FAIR      66  65  96 CALM      30.13R                  
WAUTOMA        NOT AVBL                                               
WISC RAPIDS    FAIR      69  63  81 SE6       30.11R                  
CAMP DOUGLAS   FAIR      68  65  91 SE7       30.09S                  
$$
 
WIZ011>013-019>022-031-037>040-048>050-170400-
NORTHEAST WISCONSIN
  
CITY           SKY/WX    TMP DP  RH WIND       PRES   REMARKS
ANTIGO         FAIR      64  63  97 SE6       30.15R                  
SHAWANO        FAIR      68  66  92 S5        30.13R                  
OCONTO         FAIR      60  60  99 CALM      30.14R                  
STURGEON BAY   FOG       57  57 100 MISG      30.16R VSB 1/2          
GREEN BAY      FAIR      65  60  84 S5        30.14R                  
MANITOWOC      FOG       57  57 100 SE3       30.15S VSB 1/4          
APPLETON       PTCLDY    66  64  94 SE6       30.12S                  
CLINTONVILLE   NOT AVBL                                               
OSHKOSH        FAIR      64  62  93 S3        30.13R                  
$$
 
WIZ032>034-041-042-053>061-170400-
SOUTHWEST WISCONSIN
  
CITY           SKY/WX    TMP DP  RH WIND       PRES   REMARKS
LA CROSSE      FAIR      71  64  78 SE3       30.07R                  
SPARTA         FAIR      62  61  94 CALM      30.09R                  
VIROQUA        FAIR      67  66  96 SE3       30.11R                  
BOSCOBEL       FAIR      65  63  93 CALM      30.09R FOG              
PRAIRIE DU CHI FAIR      70  65  86 E3        30.09R                  
PLATTEVILLE    FAIR      70  68  94 SE5       30.11S                  
$$

WIZ056-057-062-063-064-067-068-170400-
SOUTH CENTRAL WISCONSIN
  
CITY           SKY/WX    TMP DP  RH WIND       PRES   REMARKS
REEDSBURG      FAIR      67  64  90 SE3       30.10S                  
BARABOO/DELLS  NOT AVBL                                               
LONE ROCK      FAIR      70  66  87 E3        30.10R                  
MINERAL POINT  NOT AVBL                                               
MADISON        FAIR      69  62  78 S6        30.12R                  
MIDDLETON      FAIR      67  63  86 CALM      30.13R                  
WATERTOWN      FAIR      63  63 100 CALM      30.13R                  
MONROE         FAIR      68  62  80 SE8       30.12S                  
JANESVILLE     FAIR      64  64 100 CALM      30.13R                  
$$
 
WIZ051-052-058>065-066-070>072-170400-
SOUTHEAST WISCONSIN
  
CITY           SKY/WX    TMP DP  RH WIND       PRES   REMARKS
MILWAUKEE      FOG       60  58  92 E5        30.14R VSB 1/2          
WAUKESHA       FAIR      59  57  94 CALM      30.15S                  
MILWAUKEE/TIMM FAIR      59  55  88 CALM      30.15S                  
RACINE         FOG       61  59  93 NE5       30.16S VSB 1/4          
KENOSHA        FOG       61  61 100 E5        30.15R VSB 1/4          
FOND DU LAC    FAIR      66  60  81 SE5       30.13S                  
SHEBOYGAN      FOG       57  56  96 CALM      30.15S VSB 1/4          
WEST BEND      FAIR      59  59 100 CALM      30.15S FOG              
JUNEAU         FAIR      63  60  90 CALM      30.14S                  
$$

LSZ147-162-170400-
LAKE SUPERIOR
  
STATION/POSITION TIME  TEMP    WIND        PRES    WAVE
                       AIR SEA DIR/SP/G            HT/PER
                 (UTC) (F)     (DEG/KT/KT) (MB)    (FT/S)
W MID LAKE BUOY  0150   60 54  150/ 10/ 12 1015.7R   1
DEVILS ISLAND    0200   52      20/  8/  9 1016.6R
SAXON HARBOR     0240   60      CALM  /  2 1015.9R
$$
 
LMZ867-665-643>646-170400-
LAKE MICHIGAN
  
STATION/POSITION TIME  TEMP    WIND        PRES    WAVE
                       AIR SEA DIR/SP/G            HT/PER
                 (UTC) (F)     (DEG/KT/KT) (MB)    (FT/S)
N MID LAKE BUOY  0240   60 61  110/  8/ 10 1021.5R
NORTHPORT PIER   0240   60     110/  9/ 11 1020.7S
KEWAUNEE LAKESHO 0206   57     160/  1/  3 1020.2
SHEBOYGAN LAKESH 0200   57        CALM     1021.0R
PORT WASHINGTON  0240   58      70/  2/  3 1022.0R
MILWAUKEE LAKESH 0230   59      90/  3/  4   N/A
S MID LAKE BUOY  0240   64 68   30/  8/ 10 1020.8S
KENOSHA   LAKESH 0200   61      20/  3/  5 1020.3
$$

TC  - TEMPERATURE IN CELSIUS
VSB - VISIBILITY IN STATUTE MILES
WCI - WIND CHILL INDEX
HX  - HEAT INDEX